Thunder radar more information blitzortung!


Löydät sääaseman tiedot myös:

European Weather Network

Finland Weather Exchange

Weather Underground

AWEKAS



Weather Underground säähistoriasivu

Päivittäin yhteenveto Marraskuu 8, 2017 Yksiköt:  Metriset    Englantilaiset   Molemmat
« Edellinen Päivä
Seuraava Päivä »
Päivittäin Viikoittain Kuukausittain Vuosittain Mukautettu
  Korkea: Matala: Keskiarvo:
Lämpötila: -17.8 °C -15.7 °C -14.9 °C
Kastepiste: -17.8 °C -16.5 °C -15.8 °C
Kosteus: Humidity % 83 % 89 %
Tuulen nopeus: 0 km/h 0 km/h 4.7 km/h
Tuulenpuuska: 0 km/h - -
Tuuli:- - SSW
Ilmanpaine: 0 hPa 34418.7 hPa -
Sade: 0 mm    
Historical Graphs
 
 
Taulukkotiedot Marraskuu 8, 2017
Aika Lämpötila Kastepiste Ilmanpaine Tuuli Tuulen nopeus Tuulenpuuska Kosteus Sademäärä (tunneittain)
-17.8 °C -17.8 °C 0 hPa Calm     Humidity % 0 mm
00:00 -15.4 °C -15.9 °C 34554.1 hPa Calm   5.1 km/h 93 % 0 mm
00:15 -15.3 °C -15.9 °C 34554.1 hPa Calm   12.9 km/h 93 % 0 mm
00:30 -15.3 °C -15.9 °C 34554.1 hPa SSW 2.6 km/h 10.3 km/h 93 % 0 mm
00:45 -15.2 °C -15.8 °C 34554.1 hPa SSW 2.6 km/h 12.9 km/h 93 % 0 mm
01:00 -15.2 °C -15.8 °C 34554.1 hPa Calm   12.9 km/h 93 % 0 mm
01:15 -15.2 °C -15.8 °C 34554.1 hPa SSW 2.6 km/h 15.6 km/h 93 % 0 mm
01:30 -15.1 °C -15.8 °C 34554.1 hPa SSW 7.7 km/h 20.8 km/h 92 % 0 mm
01:45 -14.9 °C -15.6 °C 34567.7 hPa SSW 7.7 km/h 25.9 km/h 92 % 0 mm
02:00 -14.8 °C -15.6 °C 34567.7 hPa SSW 10.3 km/h 28.5 km/h 91 % 0 mm
02:15 -14.7 °C -15.5 °C 34567.7 hPa SSW 12.9 km/h 23.3 km/h 91 % 0 mm
02:30 -14.7 °C -15.4 °C 34567.7 hPa SSW 10.3 km/h 28.5 km/h 91 % 0 mm
02:45 -14.7 °C -15.4 °C 34567.7 hPa SSW 10.3 km/h 28.5 km/h 91 % 0 mm
03:00 -14.6 °C -15.3 °C 34567.7 hPa SSW 12.9 km/h 28.5 km/h 91 % 0 mm
03:15 -14.6 °C -15.3 °C 34567.7 hPa SSW 12.9 km/h 28.5 km/h 91 % 0 mm
03:30 -14.6 °C -15.3 °C 34567.7 hPa SSW 10.3 km/h 25.9 km/h 91 % 0 mm
03:45 -14.6 °C -15.4 °C 34577.8 hPa SSW 12.9 km/h 28.5 km/h 91 % 0 mm
04:00 -14.6 °C -15.4 °C 34577.8 hPa SSW 12.9 km/h 38.8 km/h 91 % 0 mm
04:15 -14.6 °C -15.4 °C 34567.7 hPa SSW 10.3 km/h 20.8 km/h 91 % 0 mm
04:30 -14.6 °C -15.4 °C 34567.7 hPa SSW 10.3 km/h 23.3 km/h 91 % 0 mm
04:45 -14.7 °C -15.4 °C 34567.7 hPa SSW 12.9 km/h 23.3 km/h 91 % 0 mm
05:00 -14.7 °C -15.5 °C 34567.7 hPa SSW 12.9 km/h 36.2 km/h 91 % 0 mm
05:15 -14.8 °C -15.5 °C 34567.7 hPa SSW 10.3 km/h 23.3 km/h 91 % 0 mm
05:30 -14.8 °C -15.5 °C 34567.7 hPa SSW 12.9 km/h 23.3 km/h 91 % 0 mm
05:45 -14.8 °C -15.6 °C 34567.7 hPa SSW 10.3 km/h 20.8 km/h 91 % 0 mm
06:00 -14.9 °C -15.6 °C 34567.7 hPa SSW 7.7 km/h 28.5 km/h 92 % 0 mm
06:15 -14.9 °C -15.6 °C 34567.7 hPa SSW 10.3 km/h 23.3 km/h 92 % 0 mm
06:30 -14.8 °C -15.5 °C 34567.7 hPa SSW 12.9 km/h 31.1 km/h 92 % 0 mm
06:45 -14.8 °C -15.5 °C 34567.7 hPa SSW 7.7 km/h 18.2 km/h 92 % 0 mm
07:00 -14.8 °C -15.5 °C 34567.7 hPa SSW 12.9 km/h 41.4 km/h 92 % 0 mm
07:15 -14.8 °C -15.4 °C 34567.7 hPa SSW 10.3 km/h 23.3 km/h 92 % 0 mm
07:30 -14.8 °C -15.5 °C 34567.7 hPa SSW 7.7 km/h 20.8 km/h 92 % 0 mm
07:45 -14.9 °C -15.6 °C 34567.7 hPa SSW 7.7 km/h 18.2 km/h 92 % 0 mm
08:00 -14.9 °C -15.6 °C 34567.7 hPa SSW 7.7 km/h 23.3 km/h 92 % 0 mm
08:15 -14.9 °C -15.6 °C 34577.8 hPa SSW 10.3 km/h 23.3 km/h 92 % 0 mm
08:30 -14.9 °C -15.6 °C 34577.8 hPa SSW 12.9 km/h 28.5 km/h 92 % 0 mm
08:45 -14.9 °C -15.6 °C 34577.8 hPa SSW 10.3 km/h 23.3 km/h 92 % 0 mm
09:00 -14.9 °C -15.6 °C 34577.8 hPa SSW 7.7 km/h 28.5 km/h 92 % 0 mm
09:15 -15.1 °C -15.7 °C 34577.8 hPa SSW 7.7 km/h 25.9 km/h 92 % 0 mm
09:30 -15.1 °C -15.7 °C 34591.4 hPa South 7.7 km/h 28.5 km/h 92 % 0 mm
09:45 -15.1 °C -15.7 °C 34591.4 hPa SSW 7.7 km/h 20.8 km/h 92 % 0 mm
10:00 -15 °C -15.7 °C 34591.4 hPa SSW 10.3 km/h 31.1 km/h 92 % 0 mm
10:15 -14.9 °C -15.6 °C 34591.4 hPa SSW 10.3 km/h 33.6 km/h 92 % 0 mm
10:30 -14.9 °C -15.6 °C 34591.4 hPa SSW 12.9 km/h 28.5 km/h 91 % 0 mm
10:45 -14.7 °C -15.4 °C 34591.4 hPa SSW 15.6 km/h 33.6 km/h 91 % 0 mm
11:00 -14.6 °C -15.4 °C 34591.4 hPa SSW 12.9 km/h 25.9 km/h 90 % 0 mm
11:15 -14.6 °C -15.4 °C 34591.4 hPa SSW 12.9 km/h 31.1 km/h 90 % 0 mm
11:30 -14.5 °C -15.4 °C 34591.4 hPa SSW 7.7 km/h 38.8 km/h 89 % 0 mm
11:45 -14.4 °C -15.4 °C 34591.4 hPa Calm     89 % 0 mm
12:00 -14.4 °C -15.3 °C 34591.4 hPa Calm     89 % 0 mm
12:15 -14.3 °C -15.4 °C 34591.4 hPa Calm     88 % 0 mm
12:30 -14.3 °C -15.3 °C 34577.8 hPa Calm     88 % 0 mm
12:45 -14.3 °C -15.4 °C 34577.8 hPa Calm     87 % 0 mm
13:00 -14.2 °C -15.3 °C 34567.7 hPa Calm     87 % 0 mm
13:15 -14.2 °C -15.3 °C 34567.7 hPa Calm     87 % 0 mm
13:30 -14.2 °C -15.4 °C 34567.7 hPa Calm     86 % 0 mm
13:45 -14.1 °C -15.4 °C 34567.7 hPa Calm     85 % 0 mm
14:00 -14.1 °C -15.6 °C 34567.7 hPa Calm     84 % 0 mm
14:15 -14.2 °C -15.6 °C 34554.1 hPa Calm     84 % 0 mm
14:30 -14.3 °C -15.7 °C 34554.1 hPa Calm     83 % 0 mm
14:45 -14.3 °C -15.7 °C 34554.1 hPa Calm     84 % 0 mm
15:00 -14.3 °C -15.7 °C 34554.1 hPa Calm     85 % 0 mm
15:15 -14.4 °C -15.8 °C 34544 hPa Calm     84 % 0 mm
15:30 -14.6 °C -15.9 °C 34544 hPa Calm     85 % 0 mm
15:45 -14.7 °C -15.9 °C 34544 hPa Calm     86 % 0 mm
16:00 -14.8 °C -15.9 °C 34544 hPa Calm     87 % 0 mm
16:15 -14.8 °C -15.9 °C 34544 hPa Calm     87 % 0 mm
16:30 -14.9 °C -16 °C 34544 hPa Calm     87 % 0 mm
16:45 -14.9 °C -16 °C 34533.8 hPa Calm     87 % 0 mm
17:00 -14.9 °C -16.1 °C 34520.3 hPa Calm     87 % 0 mm
17:15 -15.1 °C -16.1 °C 34520.3 hPa Calm     87 % 0 mm
17:30 -15.1 °C -16.2 °C 34510.1 hPa Calm     87 % 0 mm
17:45 -15.2 °C -16.3 °C 34510.1 hPa Calm     87 % 0 mm
18:00 -15.3 °C -16.3 °C 34510.1 hPa Calm     88 % 0 mm
18:15 -15.4 °C -16.4 °C 34496.6 hPa Calm     88 % 0 mm
18:30 -15.4 °C -16.3 °C 34486.4 hPa Calm     89 % 0 mm
18:45 -15.5 °C -16.4 °C 34496.6 hPa Calm     89 % 0 mm
19:00 -15.5 °C -16.4 °C 34496.6 hPa Calm     89 % 0 mm
19:15 -15.6 °C -16.4 °C 34486.4 hPa Calm     89 % 0 mm
19:30 -15.7 °C -16.5 °C 34486.4 hPa Calm     90 % 0 mm
19:45 -15.6 °C -16.4 °C 34486.4 hPa Calm     90 % 0 mm
20:00 -15.6 °C -16.4 °C 34486.4 hPa Calm     90 % 0 mm
20:15 -15.5 °C -16.4 °C 34486.4 hPa Calm     89 % 0 mm
20:30 -15.4 °C -16.4 °C 34476.3 hPa Calm     89 % 0 mm
20:45 -15.4 °C -16.3 °C 34462.7 hPa Calm     89 % 0 mm
21:00 -15.4 °C -16.3 °C 34462.7 hPa Calm     89 % 0 mm
21:15 -15.4 °C -16.3 °C 34462.7 hPa Calm     89 % 0 mm
21:30 -15.3 °C -16.2 °C 34452.6 hPa Calm     89 % 0 mm
21:45 -15.3 °C -16.3 °C 34452.6 hPa Calm     88 % 0 mm
22:00 -15.2 °C -16.2 °C 34452.6 hPa Calm     89 % 0 mm
22:15 -15.2 °C -16.2 °C 34442.4 hPa Calm     89 % 0 mm
22:30 -15.2 °C -16.1 °C 34442.4 hPa Calm     89 % 0 mm
22:45 -15.2 °C -16.1 °C 34428.8 hPa Calm     89 % 0 mm
23:15 -15.2 °C -16.1 °C 34418.7 hPa Calm     89 % 0 mm
23:30 -15.1 °C -16 °C 34418.7 hPa Calm     89 % 0 mm
23:45 -15.1 °C -15.9 °C 34418.7 hPa Calm     89 % 0 mm
Esan sääasema
Terveisin Weather Underground - 2.75 mb

Alkuperäinen skripti  Jim McMurry - jmcmurry@mwt.net Sovitettu myös templatelle  Wim van der Kuil - Leuven-Template.eu

Laitteet joita käytämme:

Sääasema
Davis VP2

Sääasemaohjelma
Cumulus

Sääaseman tietokone
Asus EeePC

Palveluntarjoaja
Suncomet

Davis VP2

Cumulus

Asus EeePC

Suncomet